Location: Risskov
(56.1972°N, 10.2480°E)
Time: 23:30:39
(UTC+00:00)

Cosmos 1933 - Pass Details

Date: 05 July 2020
Orbit: 548 x 562 km, 82.5° (Epoch: 14 August)

Event Time Altitude Azimuth Distance (km) Brightness Sun altitude
Rises 23:29:34 0° 342° (NNW) 2,736 8.4 -11.1°
Reaches altitude 10° 23:31:53 10° 332° (NNW) 1,837 7.0 -11.1°
Maximum altitude 23:35:30 32° 269° (W) 953 4.5 -11.1°
Enters shadow 23:38:30 14° 209° (SSW) 1,610 5.1 -11.1°
